Theta_e
348 350 353 356 356 357 357 357 358 358 359 359 359 359 358 358 358 357 357 356 356 356 355 355 355 354 354 354 354 353 352 352 352 353 354 354 354 353 353 353 352 352 351 351 350 350 351 351 350 350 348 348 348 347 348 347 346 345 344 344 343 343 344 344 344 344 344 343 343 344 343 345 345 345 345 345 344 343 342 342 341 339 338 340 342
347 351 353 354 355 356 357 357 358 358 358 359 358 358 358 357 357 357 357 356 356 356 355 355 354 354 354 354 354 353 352 352 352 353 354 354 353 352 351 351 351 351 351 351 351 351 350 349 348 349 348 349 348 348 347 347 345 345 345 345 346 346 346 346 345 345 344 343 343 342 342 343 344 345 344 344 344 343 341 342 341 337 336 341 342
349 351 353 354 356 356 356 357 357 358 358 358 358 358 357 357 356 356 356 356 355 355 355 355 354 354 354 354 353 353 352 353 353 353 353 353 353 352 351 350 350 349 350 351 349 348 347 348 347 347 347 347 348 348 348 348 348 346 346 346 346 345 345 344 344 344 343 344 344 344 343 343 343 343 343 342 342 341 341 342 341 341 337 341 341
347 350 353 353 356 355 356 356 356 357 357 357 356 356 356 356 356 355 355 355 355 355 355 355 354 354 354 354 354 354 353 352 353 353 352 353 352 351 349 349 349 350 350 350 349 349 349 348 347 347 350 350 350 349 349 349 348 346 346 345 345 345 344 344 344 344 343 344 343 342 341 337 338 341 342 341 341 341 340 340 341 341 340 340 340
347 350 352 352 353 355 355 356 356 356 356 356 356 355 355 355 355 355 355 355 355 354 354 354 354 354 354 354 354 354 355 353 353 352 353 353 352 350 349 350 350 350 351 350 350 349 348 347 346 346 347 349 350 349 349 349 347 346 345 345 344 344 344 344 344 343 343 343 342 340 336 335 335 340 341 341 340 340 340 340 340 340 340 341 340
347 349 350 351 352 353 354 355 355 355 355 355 355 355 355 355 355 354 355 354 354 353 353 354 354 354 354 354 354 354 354 355 354 354 353 354 353 352 352 352 351 351 351 349 349 348 347 346 346 347 347 348 348 349 349 348 346 346 345 345 345 344 345 344 343 344 344 345 344 338 336 336 337 339 342 341 341 342 341 340 340 340 339 339 339
346 347 348 349 350 352 354 354 354 354 354 355 354 353 354 354 354 354 354 354 353 353 352 354 354 353 353 354 353 353 353 353 353 353 353 352 352 352 351 351 350 350 348 348 347 346 346 346 346 347 347 348 347 348 348 348 346 345 345 344 344 344 343 344 344 344 344 342 338 339 334 336 336 337 341 341 339 340 339 339 340 339 338 339 339
343 345 348 349 350 353 353 353 353 353 353 353 352 353 353 354 354 354 353 353 353 352 352 352 353 352 352 353 353 353 352 353 352 352 352 351 351 351 351 350 349 348 347 347 347 346 346 346 347 347 347 348 346 346 347 346 345 345 343 344 343 344 344 344 344 343 342 342 340 342 333 334 335 335 338 339 340 341 340 340 341 341 340 340 340
340 344 347 349 351 353 353 353 353 353 353 353 353 353 353 353 353 354 353 353 352 352 352 352 352 352 352 352 352 352 352 352 352 352 351 350 350 349 349 350 349 349 349 350 349 350 346 346 348 348 348 347 346 345 345 344 344 342 343 343 343 344 344 344 344 344 344 343 340 337 336 334 335 337 341 341 340 342 341 339 339 339 340 340 340
340 343 347 350 351 353 353 353 352 352 353 352 352 352 352 353 353 353 353 353 352 352 351 351 351 352 351 351 351 350 351 351 351 351 350 349 349 348 347 347 348 348 348 349 347 348 346 347 347 348 347 347 346 345 344 344 343 342 342 343 343 343 343 344 344 342 340 341 337 335 335 339 334 334 338 340 340 341 339 339 342 337 338 338 338
341 344 346 350 351 353 353 352 352 352 352 352 352 352 352 353 353 353 353 353 352 352 352 351 351 351 350 350 350 350 350 351 349 349 350 349 348 348 349 349 348 348 348 348 348 350 349 347 346 346 346 346 345 344 343 343 342 341 342 342 343 343 343 343 344 336 336 338 338 337 340 341 332 334 340 340 339 339 339 338 338 339 339 339 339
343 343 346 349 353 352 353 352 352 353 353 352 352 352 352 353 353 352 352 352 351 351 351 351 351 350 350 350 350 351 351 351 351 350 350 349 349 349 348 347 347 347 347 349 349 349 348 348 347 346 345 345 344 344 342 342 342 341 341 342 341 341 341 342 340 336 336 338 337 336 335 334 333 337 340 339 339 338 337 338 338 340 338 338 338
343 343 346 348 349 352 352 352 353 353 352 352 351 352 352 352 353 352 352 352 351 351 351 351 351 351 351 350 351 351 351 350 350 350 350 349 349 348 348 347 346 346 347 348 348 348 348 347 346 345 345 344 344 343 342 342 341 342 341 340 340 340 341 342 338 334 336 335 334 333 332 332 335 340 340 339 338 338 337 339 338 339 338 338 338
343 343 345 346 349 354 351 352 352 352 352 352 351 351 352 352 352 352 352 351 351 351 351 351 351 351 351 351 351 351 351 350 350 349 350 349 348 347 347 347 346 346 347 348 347 348 348 347 346 345 344 343 342 342 342 341 341 340 340 341 341 341 342 341 339 336 336 334 335 334 334 335 335 341 339 339 338 337 337 337 339 337 338 337 336
342 342 344 347 349 350 353 352 352 352 352 352 352 352 352 352 352 352 352 351 351 351 351 351 351 351 351 350 350 350 350 350 349 349 349 349 348 347 346 346 345 345 346 347 347 347 347 346 345 344 343 341 341 340 340 338 338 338 338 340 340 341 341 341 338 336 335 336 336 336 335 335 341 341 339 338 338 337 337 337 336 336 337 337 337
343 343 345 346 348 349 350 353 352 351 351 352 352 352 352 352 352 352 352 351 351 351 351 351 351 351 351 351 350 350 350 349 350 349 349 348 348 347 346 345 345 346 347 346 347 346 346 345 345 343 341 341 340 339 337 337 335 337 337 338 340 341 343 344 337 336 334 334 335 335 335 337 341 339 338 338 337 336 335 336 336 337 337 337 337
344 344 344 346 347 347 349 350 351 352 351 351 352 352 352 352 352 352 352 352 351 351 350 350 351 351 351 351 350 349 349 349 349 349 349 349 348 347 346 345 345 346 346 346 346 345 346 345 345 343 341 341 340 338 337 336 336 337 339 339 340 340 344 346 340 338 334 336 336 335 335 336 340 340 338 338 336 336 335 335 336 335 335 336 337
343 342 343 345 344 347 348 349 349 348 349 350 351 351 351 351 352 352 352 351 351 351 350 350 349 349 349 350 349 349 348 349 348 349 349 349 348 348 347 345 345 346 346 346 346 345 346 345 345 343 342 341 340 339 338 337 338 340 339 340 341 343 344 346 340 336 336 339 335 336 335 340 341 339 338 337 336 335 335 335 334 335 335 335 335
342 342 343 343 344 346 347 347 347 348 347 347 348 350 351 351 352 351 351 351 350 348 347 346 347 347 347 348 348 348 347 347 348 348 349 348 348 347 348 347 345 346 346 346 346 345 345 345 345 344 342 342 340 338 337 338 339 338 340 342 342 343 345 344 339 335 337 335 335 334 335 341 341 339 338 337 335 335 334 334 334 334 334 335 337
343 343 341 342 344 345 345 345 345 345 345 346 347 348 351 351 351 351 351 349 346 344 344 344 344 345 346 347 347 347 346 345 348 347 348 347 347 346 347 347 346 346 346 346 345 345 345 345 345 344 343 342 340 339 338 338 338 338 340 342 343 344 338 336 338 335 334 335 336 335 340 341 339 338 338 337 335 334 334 334 334 334 334 334 336
344 343 342 343 345 344 344 344 344 344 345 345 346 347 349 350 350 350 350 347 345 344 344 344 343 343 343 344 343 342 341 341 343 344 348 346 345 346 346 346 346 346 345 345 345 345 344 344 345 345 344 343 342 341 341 338 339 339 341 342 344 335 337 337 336 336 335 336 336 336 342 340 339 339 338 337 335 334 334 334 334 334 334 334 333
340 341 343 345 345 344 343 344 344 344 345 345 346 347 347 347 346 346 346 344 344 344 342 340 346 340 342 341 340 341 339 339 339 347 344 346 345 347 346 346 345 345 346 345 345 345 344 343 344 344 343 342 342 334 334 338 340 340 339 341 339 335 335 336 334 335 335 334 336 339 342 341 339 339 339 337 335 334 333 334 334 333 333 333 333
337 340 342 344 344 344 345 345 344 344 344 344 346 346 345 344 344 345 345 345 345 343 339 341 336 337 338 339 339 338 338 340 341 344 344 346 346 347 346 346 346 345 345 345 345 345 345 344 344 344 342 342 336 331 327 327 328 337 339 339 335 333 335 336 333 334 334 335 335 342 341 341 340 339 339 338 335 334 334 334 333 333 332 332 332
336 339 341 344 342 341 342 344 344 342 342 342 344 344 343 343 343 342 341 338 337 338 337 337 337 336 337 336 337 339 338 337 343 343 344 343 345 346 346 346 345 345 344 344 344 344 343 344 343 342 341 338 332 330 328 326 326 327 330 333 333 334 335 335 333 333 334 338 337 342 342 341 341 339 339 338 336 335 334 333 333 333 332 331 331
336 339 340 342 341 340 342 343 344 343 342 343 343 342 342 341 341 341 339 337 335 335 336 333 334 337 337 337 337 338 338 337 338 340 339 340 340 340 341 339 339 340 344 337 337 340 341 339 337 337 331 331 330 327 326 325 327 328 328 332 333 333 334 336 334 334 335 336 338 342 341 341 340 339 339 338 336 335 333 333 333 333 332 332 331
336 337 339 341 340 341 342 342 343 342 342 341 339 343 342 339 339 340 338 335 334 333 334 332 333 335 336 338 338 336 337 338 336 336 340 338 339 338 339 338 337 338 341 337 337 338 337 336 335 335 332 329 327 326 325 327 326 327 326 327 331 333 335 335 334 334 335 336 338 342 341 341 340 339 339 338 337 335 334 333 333 333 332 331 331
335 336 339 340 341 342 342 343 341 341 342 342 341 342 340 340 339 340 337 335 333 331 332 332 332 333 336 338 335 335 336 336 335 335 336 337 336 336 337 335 335 334 339 336 333 337 337 336 333 331 329 327 326 326 326 326 329 328 326 328 330 333 334 334 334 335 335 336 339 342 341 341 341 339 338 338 338 336 334 334 333 333 332 332 332
331 336 338 339 341 342 343 342 340 340 340 343 342 341 340 339 341 343 338 339 335 332 332 331 334 334 337 339 339 335 335 334 334 334 335 336 335 336 335 335 334 334 335 335 334 334 335 335 333 331 330 328 327 327 327 328 328 327 326 326 329 332 333 334 334 334 336 337 338 341 341 341 341 340 338 338 338 336 335 334 333 333 332 331 331
329 332 337 338 341 342 343 341 341 340 341 343 340 340 340 339 337 336 337 343 335 333 333 334 334 335 337 339 338 334 334 335 334 335 335 333 332 333 334 334 335 335 335 335 337 333 333 334 333 333 331 331 329 327 327 327 327 327 325 326 327 329 332 333 334 334 336 337 337 340 342 341 340 340 339 337 337 337 335 335 334 333 332 332 331
329 329 333 336 340 342 342 341 340 340 341 340 339 338 337 336 336 335 337 339 333 334 336 335 334 335 335 337 338 337 335 334 333 332 334 332 331 332 334 334 333 335 334 335 334 332 332 333 332 333 333 331 330 329 328 326 325 327 326 325 325 324 328 332 334 334 335 337 337 339 342 340 340 340 339 337 337 337 337 335 335 334 333 332 332
330 329 329 334 338 338 338 339 340 344 340 340 339 337 336 335 335 336 338 336 335 336 334 335 334 336 336 337 338 336 335 334 334 332 333 333 333 333 333 332 331 332 333 333 332 331 331 333 334 334 332 331 330 330 328 325 325 323 326 324 323 323 325 331 334 335 334 335 337 339 340 342 340 338 339 339 339 337 337 336 336 335 333 332 333
330 330 330 332 333 334 336 337 339 340 340 340 340 337 335 335 336 335 335 335 336 335 335 336 339 334 336 336 335 335 336 335 334 335 334 332 332 331 332 332 332 333 332 332 331 332 332 334 335 333 333 331 330 329 328 327 324 324 323 323 323 323 322 329 332 335 334 334 336 338 339 339 341 339 340 339 339 339 338 336 336 336 336 333 334
330 331 333 333 333 334 334 335 336 338 337 338 337 336 335 336 335 334 334 335 335 335 334 335 334 335 336 335 334 335 335 334 331 329 333 330 330 330 331 332 332 332 332 331 331 330 331 331 333 333 331 330 329 328 331 326 325 325 324 324 323 322 321 329 329 332 334 334 335 336 337 337 338 339 338 340 339 339 339 337 336 336 336 335 334
330 332 333 333 334 334 334 333 331 332 331 332 333 333 334 333 334 336 337 334 333 333 335 332 334 336 336 334 334 335 335 335 332 331 331 331 333 333 331 332 333 332 330 329 329 329 329 330 330 328 331 329 328 327 325 324 322 323 324 325 327 324 325 324 326 328 333 334 333 333 335 336 336 336 337 341 340 338 337 338 337 336 336 335 335
331 332 332 332 332 332 333 332 330 329 332 330 330 331 332 333 334 336 334 331 331 331 332 332 333 336 334 331 333 336 333 333 333 330 331 331 331 329 331 331 330 330 329 327 327 327 329 328 331 329 329 328 327 325 326 321 321 321 323 325 328 328 328 327 328 326 330 334 332 332 333 334 335 335 336 337 339 339 337 338 339 338 336 336 336
332 332 333 332 331 332 332 331 331 331 330 331 330 331 332 332 334 338 333 331 329 330 331 330 332 334 334 334 335 334 334 334 333 332 332 331 330 329 330 332 329 327 329 330 328 327 327 328 329 329 326 327 325 326 322 319 319 319 324 325 324 327 327 329 329 329 328 328 333 332 332 333 334 334 336 335 336 336 338 337 338 338 338 337 336
332 332 332 332 332 333 333 331 330 331 330 329 329 329 329 329 330 333 332 330 328 329 330 331 334 333 332 334 332 332 330 332 332 334 333 331 332 330 329 330 329 326 327 328 327 328 327 329 326 329 329 327 329 329 327 327 327 326 327 323 324 326 326 328 329 329 330 327 326 331 332 332 333 338 335 334 335 334 337 337 338 337 336 337 338
332 333 333 332 332 332 331 331 331 331 329 329 328 326 327 327 325 328 331 327 329 331 332 333 331 331 331 332 334 333 330 330 331 330 330 331 331 329 329 330 329 328 327 327 327 327 328 326 325 328 329 328 328 328 325 326 329 330 328 327 326 325 325 327 327 330 328 328 327 328 331 332 332 333 333 333 334 334 334 336 337 336 336 335 338
332 333 333 331 331 331 331 332 330 330 329 329 328 325 322 321 320 320 321 322 324 328 329 328 329 328 326 326 326 329 333 331 332 330 328 331 330 329 326 327 329 328 328 329 328 327 327 328 327 328 329 329 328 328 327 326 328 329 330 329 331 327 327 328 327 326 326 327 329 330 329 330 333 333 331 332 332 333 333 334 334 335 335 335 336
333 333 331 330 330 330 330 329 329 329 327 325 323 318 317 318 317 320 320 320 322 325 324 322 322 322 325 325 325 323 324 326 328 330 331 329 328 327 326 327 328 328 326 325 326 325 326 326 327 327 328 329 330 327 327 327 326 325 325 327 330 329 331 329 325 325 325 324 325 328 328 327 330 334 333 332 332 332 332 333 334 334 334 335 335
332 331 330 329 329 329 329 327 328 328 325 323 322 319 317 318 319 318 318 319 321 321 321 321 320 320 321 322 322 322 322 323 323 327 324 331 327 326 327 328 328 327 326 325 325 328 329 327 326 327 327 327 326 329 329 327 324 320 324 326 325 327 329 330 329 326 324 324 324 326 328 327 326 327 332 335 334 333 332 332 333 333 333 333 333
330 330 329 330 329 329 329 329 328 327 326 324 323 322 320 318 315 316 318 318 320 317 316 318 321 323 322 322 322 322 323 323 323 322 324 324 328 328 328 328 328 326 326 327 327 329 328 327 327 325 327 324 323 327 326 323 319 317 317 318 320 324 329 328 327 329 327 325 324 326 329 327 328 327 329 329 331 334 334 331 332 332 333 333 333
330 330 330 330 329 328 329 329 328 328 326 327 324 322 320 320 318 318 320 319 321 319 317 320 321 320 320 322 324 324 323 320 323 325 321 322 323 324 326 328 328 328 326 324 325 325 325 325 325 323 322 325 325 327 326 323 318 320 319 316 314 313 318 322 325 328 328 326 326 330 330 327 328 329 329 328 327 330 336 334 332 331 331 332 332
330 331 330 330 330 328 329 328 328 327 327 326 324 322 324 323 322 321 321 320 319 321 319 319 319 318 319 321 322 322 322 321 322 321 319 319 320 319 318 323 325 326 326 325 323 322 322 324 323 323 323 319 323 325 327 324 323 319 313 313 314 313 311 314 318 324 328 329 331 330 330 331 328 329 328 329 329 328 329 329 331 332 333 332 333
327 331 331 330 331 329 329 328 327 326 326 326 323 323 322 320 320 320 320 319 318 316 316 315 315 319 319 319 321 322 321 320 320 320 321 319 319 319 321 318 318 320 324 323 322 323 324 324 323 322 322 320 319 323 325 326 325 325 318 315 312 310 311 314 318 319 325 326 330 331 333 332 330 329 328 329 331 330 329 331 332 333 333 332 333
326 330 332 331 331 329 329 327 326 325 325 322 322 322 320 318 316 315 313 312 312 313 312 313 315 315 316 319 321 321 321 320 319 320 321 320 318 319 318 316 317 318 319 317 318 318 319 323 324 325 321 321 320 320 321 325 325 324 324 320 318 313 314 317 315 311 319 324 326 330 330 330 331 331 329 329 330 332 331 330 331 331 333 332 333
327 328 332 331 331 330 329 327 325 325 325 322 323 323 320 318 316 314 313 313 313 315 315 316 315 316 318 318 320 320 320 319 319 319 319 321 319 317 314 314 317 316 317 314 315 316 317 318 320 321 322 322 321 318 319 320 322 322 323 322 322 321 320 315 312 313 311 316 321 323 325 329 330 331 331 331 331 331 331 331 331 332 331 332 332
328 330 332 330 330 329 328 325 325 325 325 323 323 322 320 319 316 315 316 315 316 316 316 315 318 318 318 319 319 319 320 321 319 316 316 318 316 315 314 312 313 315 316 313 313 314 315 318 318 317 318 318 318 318 317 318 316 316 321 319 320 322 321 322 321 315 311 311 314 320 325 325 326 329 331 330 332 331 330 331 331 331 330 333 331
330 331 332 330 330 329 327 324 324 324 324 323 322 322 321 319 316 316 317 318 317 317 317 318 317 319 316 316 317 316 316 317 317 317 316 315 317 315 314 314 312 312 315 314 315 316 314 313 314 315 313 313 315 315 314 313 316 316 318 317 318 317 318 320 319 319 314 311 310 314 316 322 325 327 326 329 330 330 330 331 332 331 330 331 332
329 331 331 330 330 329 325 324 324 324 324 322 322 321 320 319 316 316 318 317 317 316 316 315 315 316 317 316 315 314 314 315 314 314 313 315 315 315 314 314 315 316 315 312 312 312 313 313 313 313 313 313 313 313 312 311 311 311 313 315 315 315 316 317 318 318 318 316 310 312 313 314 313 317 323 326 326 328 329 329 329 330 329 331 332
326 329 330 330 329 328 324 323 324 324 324 321 320 320 319 318 318 317 317 316 316 315 314 314 315 315 314 315 314 315 315 314 315 314 314 314 314 316 313 315 316 318 316 314 313 314 314 313 314 314 314 313 313 312 312 312 310 309 310 310 309 311 309 308 308 311 311 308 307 308 309 309 316 314 318 323 324 327 327 326 325 326 327 327 328
Wind_Speed
6 11 9 15 16 17 16 16 14 14 15 15 16 15 16 17 17 17 17 17 17 16 16 16 15 15 15 14 14 13 13 13 13 14 13 15 16 16 15 16 16 16 16 15 15 15 15 15 15 14 14 15 16 16 16 16 15 16 16 15 15 15 15 16 17 17 17 17 17 15 15 14 14 15 14 16 16 16 16 15 12 8 7 11 15
11 9 9 12 17 17 17 15 14 14 14 15 15 15 16 17 17 17 17 17 16 16 16 15 15 14 14 13 13 13 13 12 13 13 13 14 15 15 15 14 14 14 15 16 16 15 14 14 14 14 14 14 15 16 15 15 15 14 14 14 15 14 15 15 15 16 16 15 15 15 15 14 14 15 16 16 16 17 16 15 14 6 4 13 14
11 9 9 13 17 18 16 15 14 14 15 15 16 16 16 17 17 17 17 16 16 16 16 15 14 14 13 13 13 13 12 11 11 12 12 13 14 14 14 14 14 13 14 15 15 14 14 14 14 13 12 14 14 14 14 15 14 13 12 13 13 13 13 13 14 15 16 16 16 15 16 16 15 15 16 16 16 15 15 13 14 12 7 14 13
13 8 9 15 19 17 16 15 14 14 15 15 15 17 17 16 17 17 17 17 16 16 16 14 13 13 13 13 13 13 13 12 12 12 12 12 12 13 13 13 12 13 14 14 14 14 13 13 13 13 14 14 15 15 14 14 13 11 11 12 12 12 12 13 12 13 15 16 15 11 6 6 10 14 15 14 15 14 13 14 14 14 13 13 15
12 9 9 10 13 15 16 15 15 15 15 15 15 17 17 17 17 16 16 16 16 17 16 15 14 13 13 13 13 13 13 12 11 12 12 11 11 12 12 12 12 13 14 13 14 13 13 12 12 13 12 13 13 13 14 13 11 9 10 10 9 10 10 10 11 12 15 16 14 8 6 7 7 13 13 13 13 14 13 13 13 13 14 14 13
12 9 9 10 11 13 16 16 15 15 15 15 16 16 16 16 17 17 16 16 16 16 16 15 13 13 13 13 13 13 13 13 13 13 11 10 11 12 12 12 12 12 12 12 13 13 12 11 12 13 12 12 12 12 13 12 9 9 8 8 8 7 7 8 9 11 11 12 11 5 5 6 6 7 13 11 12 14 12 10 12 13 13 13 13
13 8 9 10 10 12 16 16 15 15 15 16 16 17 16 17 17 17 16 16 16 16 16 15 13 13 13 13 13 13 13 13 13 13 12 11 10 10 11 11 11 10 11 12 12 12 10 11 12 12 12 11 11 12 12 11 9 7 6 5 5 5 5 6 6 5 5 2 1 4 5 6 5 5 12 11 10 12 12 12 12 12 13 12 13
10 8 9 9 10 14 17 17 16 15 15 16 17 17 17 16 16 16 16 17 16 15 15 15 14 13 14 13 12 13 13 13 13 12 12 11 10 10 9 10 9 7 11 10 12 11 10 10 12 11 11 12 11 11 11 10 6 5 3 2 3 2 2 3 3 2 2 1 2 3 4 5 5 6 10 10 11 11 12 12 12 14 14 12 11
11 10 9 10 11 20 19 16 17 17 15 16 16 15 16 17 17 16 16 16 16 15 15 15 15 14 14 13 12 12 13 12 12 12 11 11 10 9 6 7 4 4 8 8 7 7 9 11 12 12 12 12 11 10 10 8 5 1 2 1 2 3 4 3 1 1 2 3 4 6 7 6 6 6 10 10 9 12 13 10 9 12 13 12 11
11 10 10 9 10 19 19 18 16 17 16 16 16 17 17 17 17 16 16 16 15 15 14 15 14 15 13 13 12 12 13 12 12 12 11 11 10 8 6 4 4 7 8 8 8 7 7 12 12 11 12 11 11 11 9 7 3 1 3 2 3 3 3 4 5 4 1 1 11 9 6 8 5 5 9 11 11 13 12 12 9 8 9 12 12
12 10 9 10 13 18 17 17 18 18 17 16 16 16 17 17 17 16 16 16 16 15 13 14 15 15 14 13 13 13 13 13 12 13 12 11 10 8 7 7 8 8 8 8 11 14 14 14 12 11 11 11 10 9 8 7 3 3 4 4 4 4 6 6 5 2 4 9 10 8 10 13 5 5 12 13 10 12 13 12 10 10 10 11 11
12 10 9 9 16 17 17 17 18 17 18 18 17 16 16 16 16 16 16 15 15 15 14 13 13 14 14 13 13 13 13 13 13 13 12 11 11 10 10 9 9 8 8 11 13 13 15 14 13 11 10 10 9 8 7 5 5 4 4 5 5 5 6 6 4 2 1 10 10 8 8 8 6 8 14 12 11 11 12 12 11 10 9 9 11
12 11 9 9 10 15 16 16 17 17 17 17 17 17 16 16 16 16 15 15 14 14 14 13 13 12 12 13 13 13 13 13 13 12 12 11 10 10 9 9 9 9 9 12 13 13 14 14 12 11 10 9 8 8 7 5 5 4 4 4 4 5 5 7 2 2 4 6 7 7 8 6 6 12 13 13 10 10 10 11 10 10 10 9 10
12 11 10 9 9 16 16 16 15 16 16 15 14 14 15 15 15 15 14 14 14 13 12 12 12 11 10 11 12 12 12 12 12 13 12 11 10 9 8 8 8 8 10 11 12 12 13 13 12 11 10 8 7 7 4 3 3 3 4 5 5 4 5 5 4 1 6 7 6 8 7 6 6 12 13 12 10 10 10 11 11 10 10 9 9
13 12 10 9 9 10 18 15 15 14 15 14 13 13 13 13 13 13 14 14 14 13 13 12 11 11 11 11 11 11 11 10 10 11 12 11 10 9 9 8 8 8 9 11 11 11 12 12 11 10 9 7 7 5 3 1 3 4 5 6 6 6 5 2 3 3 9 7 7 9 7 6 10 12 12 12 10 10 10 10 10 10 9 9 9
13 12 11 9 9 9 9 15 15 15 14 14 13 13 13 13 13 13 13 13 13 13 12 12 12 11 10 10 11 11 11 10 9 10 10 10 10 9 9 8 8 8 9 10 10 10 11 11 10 9 9 7 6 5 3 0 4 5 5 6 7 6 5 4 3 5 5 6 6 7 7 7 13 12 12 11 10 9 9 10 10 9 10 10 9
12 12 12 11 10 8 9 9 12 17 14 13 13 13 13 13 12 12 12 12 13 14 13 12 10 10 10 10 10 10 10 10 10 11 11 10 10 9 8 8 8 8 9 10 10 10 10 10 10 9 8 7 5 4 3 2 3 5 6 6 7 6 6 5 3 2 7 6 7 6 6 6 11 12 13 11 10 10 9 9 10 9 9 8 9
13 12 12 11 9 9 9 9 9 8 8 11 13 13 13 13 13 12 12 12 13 13 12 9 9 9 10 10 10 10 10 10 9 9 10 9 9 8 7 8 8 9 9 10 10 10 10 10 9 8 8 6 5 4 3 2 4 5 6 6 6 6 7 5 3 3 7 9 7 6 5 9 13 13 13 12 10 9 9 10 9 10 9 7 8
11 11 11 11 10 10 9 8 8 8 8 6 6 10 13 13 13 13 13 13 15 15 11 8 9 9 9 10 10 10 8 8 9 8 8 9 9 9 7 7 8 9 9 10 10 10 9 9 9 8 7 6 5 3 2 3 5 5 6 7 5 5 7 3 3 5 5 7 7 7 6 12 12 13 14 13 9 9 9 8 9 9 8 8 7
10 10 10 9 10 10 8 7 8 8 7 7 7 7 12 13 12 12 14 16 17 13 8 8 9 8 8 9 8 5 6 5 9 6 8 8 8 6 7 7 8 9 9 9 10 10 9 9 8 7 6 6 5 4 3 4 5 8 8 7 4 4 3 2 2 7 6 6 8 7 11 14 14 14 14 13 10 10 9 8 8 9 8 8 8
8 10 9 9 11 11 10 8 8 8 9 8 7 7 9 13 10 12 14 17 17 13 9 8 8 7 6 6 5 3 2 3 4 3 8 4 6 8 8 8 8 8 9 9 9 9 8 7 5 5 5 4 4 3 4 5 5 8 9 9 6 2 4 3 2 5 5 6 7 7 15 14 15 15 15 13 10 10 9 9 8 8 9 8 7
7 8 9 10 10 9 10 9 8 8 9 7 6 6 7 10 7 7 8 12 13 12 7 3 6 5 7 4 3 2 2 2 2 5 3 3 5 9 8 8 7 8 6 7 7 6 6 7 6 5 4 3 4 2 3 5 6 7 9 11 4 3 2 3 3 5 5 4 5 9 16 14 15 16 15 14 11 10 10 9 8 8 8 8 8
7 7 7 10 9 7 7 9 8 8 9 8 7 7 8 7 7 8 8 9 9 7 2 3 2 4 3 3 2 2 0 0 1 3 3 4 4 7 8 9 8 8 6 5 6 5 5 5 5 4 4 3 2 3 3 3 4 7 7 7 5 4 3 3 4 5 6 5 5 13 14 14 15 16 16 15 12 10 10 9 9 8 7 7 7
8 8 8 7 9 8 8 8 8 9 9 7 6 7 7 7 7 6 6 6 5 5 3 2 2 2 3 3 2 3 0 0 2 4 5 2 4 6 6 8 8 7 7 5 6 6 6 6 5 4 3 2 2 3 3 4 4 4 4 5 6 5 3 2 5 5 5 6 6 14 13 14 15 15 15 15 13 11 10 10 10 8 8 7 7
8 7 7 8 10 9 8 8 8 8 8 6 7 6 6 6 6 7 7 5 4 4 3 2 2 3 4 4 1 1 3 2 3 5 3 3 3 3 3 2 2 3 5 3 3 3 4 3 2 3 3 3 3 4 4 5 5 4 5 5 5 5 4 3 6 5 5 5 6 13 13 13 14 15 15 14 14 12 10 10 10 10 8 8 6
7 8 8 10 10 9 9 8 8 7 7 6 6 6 7 6 6 6 6 4 4 4 2 2 1 2 3 4 4 2 2 3 2 3 4 4 4 3 3 3 3 3 3 3 4 3 4 3 3 4 4 5 4 5 4 4 6 5 5 4 5 5 6 4 5 5 4 5 6 12 11 12 13 14 14 14 13 13 10 9 10 10 8 8 8
8 8 8 9 10 10 10 9 8 7 7 7 6 5 5 5 5 6 6 4 4 3 3 2 1 1 2 3 4 3 3 3 2 2 1 4 4 4 3 2 3 3 3 2 1 2 3 2 3 5 5 3 4 4 5 5 6 6 3 2 4 5 6 7 5 5 5 5 6 11 11 11 12 13 13 14 13 12 12 10 10 10 9 9 8
7 9 8 9 10 11 10 10 8 8 6 7 7 6 5 6 6 6 5 5 5 4 4 4 4 4 2 3 3 3 4 3 2 3 1 4 5 3 3 2 4 2 1 2 0 5 5 4 4 4 2 3 4 6 7 7 6 4 4 6 5 5 5 6 6 5 5 5 5 8 9 10 10 11 13 13 13 12 12 13 11 9 9 8 8
10 9 8 8 10 10 10 9 8 9 6 7 7 6 6 6 5 6 5 5 4 4 4 3 4 3 2 4 3 2 4 4 3 2 4 4 4 3 3 3 3 2 2 3 3 6 5 4 2 2 1 2 1 3 4 3 2 1 1 0 1 1 3 6 7 7 5 5 5 7 10 11 9 10 12 12 13 13 12 12 12 11 11 9 9
9 10 9 8 9 10 11 10 8 8 8 7 6 6 6 6 5 6 6 5 4 4 5 5 4 4 2 3 5 3 4 4 2 3 5 4 4 3 3 2 2 3 3 2 4 3 3 2 1 1 1 3 1 2 2 5 5 3 2 2 2 2 2 4 8 7 6 5 5 6 11 10 10 9 10 11 12 13 12 12 12 12 12 11 9
7 9 9 10 9 10 9 9 9 8 8 9 8 7 7 7 6 5 5 5 5 4 4 4 4 4 4 3 4 3 4 1 2 2 4 4 3 4 4 3 1 2 3 2 2 1 1 3 2 3 3 2 2 1 2 3 4 5 2 3 5 3 2 5 7 7 8 6 5 5 8 11 10 10 10 10 10 12 13 12 13 12 12 12 10
8 5 5 10 11 11 11 9 8 8 7 7 7 8 7 6 6 5 5 5 5 5 4 4 4 3 3 3 4 3 4 4 1 2 2 3 2 3 4 4 4 4 3 2 1 3 1 1 2 1 3 0 3 3 3 2 2 3 4 2 3 4 3 5 7 7 8 8 6 6 6 8 11 10 10 10 10 10 12 12 12 12 13 12 11
4 5 8 11 10 10 10 7 8 7 7 8 7 6 6 7 6 5 4 4 4 4 5 4 4 2 3 3 3 3 4 4 4 3 5 5 1 2 2 3 2 1 2 2 3 2 1 1 2 3 3 1 2 4 2 0 1 2 2 4 3 5 3 4 7 7 8 8 7 7 6 7 7 9 10 8 9 10 10 12 11 12 13 12 12
6 7 10 9 8 7 6 5 7 7 5 3 4 6 5 6 6 6 6 5 4 5 4 4 3 4 3 2 4 5 5 4 3 6 3 5 4 4 3 3 3 3 2 2 3 2 0 1 1 2 3 1 3 3 3 3 3 2 3 2 5 4 2 2 3 5 8 7 8 7 6 6 6 6 6 9 8 9 9 10 11 11 12 12 12
7 8 10 8 8 7 6 6 8 7 7 7 7 7 6 6 5 5 6 6 6 6 5 4 3 4 3 3 2 5 6 3 3 4 0 4 1 3 2 1 1 1 2 2 3 2 0 1 1 4 2 1 3 4 3 1 1 1 2 4 5 4 4 5 6 5 1 5 7 6 6 6 6 6 6 5 8 10 10 10 11 10 12 12 12
8 9 9 8 8 7 7 8 7 8 7 8 8 10 9 7 6 6 5 4 5 5 5 5 5 5 5 5 5 4 2 4 7 4 5 1 1 1 1 1 1 2 2 4 3 3 3 1 1 1 1 2 3 5 5 2 3 4 3 5 4 4 5 6 6 5 4 3 2 4 7 6 7 7 7 6 5 7 11 11 10 11 11 12 12
8 9 9 9 9 8 8 9 8 7 6 7 8 7 7 6 6 8 7 5 5 5 4 3 4 4 5 6 7 5 3 3 5 7 6 5 3 3 2 2 0 1 1 1 2 3 3 2 1 3 0 2 2 3 4 4 4 3 4 4 4 3 5 4 4 4 5 5 5 5 2 5 7 8 7 7 6 6 10 12 10 11 11 11 11
8 8 8 9 9 7 7 7 7 7 6 7 6 7 5 4 4 5 5 5 3 4 4 4 3 5 5 5 7 6 6 5 5 5 5 5 5 5 5 4 2 1 1 2 0 1 2 2 2 1 2 3 3 2 1 2 2 1 3 4 2 3 3 2 3 4 5 4 4 3 6 4 2 4 6 6 7 6 6 10 12 10 12 11 9
8 9 8 8 7 6 6 7 7 6 5 6 5 5 5 4 4 5 6 7 6 5 4 4 3 4 5 5 5 5 6 5 4 5 5 5 4 4 2 1 3 2 1 2 0 1 3 2 2 2 2 1 3 2 1 1 2 2 2 2 3 3 3 2 2 2 3 3 2 4 2 5 6 6 4 6 7 7 7 6 6 6 8 14 10
8 8 9 7 7 6 6 6 6 6 5 6 7 6 6 6 5 5 6 6 7 7 6 5 5 5 5 6 6 5 4 5 4 4 5 5 4 3 1 2 1 3 2 2 0 2 2 2 3 3 2 1 2 3 3 1 2 3 2 2 2 2 4 4 3 2 1 3 4 4 2 2 6 7 9 8 6 8 7 7 7 7 6 9 12
8 9 8 7 6 7 7 7 6 6 7 7 5 5 5 4 4 6 6 6 7 6 6 6 6 6 6 6 4 5 4 4 3 3 4 5 3 2 2 1 0 1 3 3 3 0 1 2 3 2 2 2 1 0 2 2 2 1 3 2 2 2 2 1 2 4 3 3 3 4 3 2 3 5 8 7 6 6 6 7 7 6 7 6 8
8 9 9 7 6 5 7 7 6 6 7 7 6 5 4 6 6 6 5 6 7 7 6 6 6 6 6 4 4 2 3 2 0 3 4 5 6 4 4 4 2 1 1 2 2 2 2 1 3 1 2 2 2 2 2 3 1 2 1 1 1 1 2 1 1 3 4 4 4 4 4 2 2 3 2 5 6 5 6 6 6 7 7 7 6
10 10 9 8 5 5 6 7 7 7 7 6 6 6 4 5 4 4 7 4 3 5 6 5 4 5 4 3 2 2 1 2 3 4 5 5 5 5 4 4 3 2 2 2 3 3 3 3 4 5 5 4 3 3 6 1 3 0 1 2 1 1 2 2 1 0 2 3 4 4 4 3 1 2 4 5 4 5 6 5 5 5 4 6 5
10 9 9 9 7 5 6 7 8 7 6 5 6 5 6 7 9 9 7 8 7 6 6 4 5 6 5 3 3 4 5 4 4 5 5 5 5 4 3 3 3 3 3 3 2 2 1 1 1 2 4 2 0 1 2 3 1 6 1 1 1 1 0 2 0 1 1 1 2 3 3 3 2 2 2 5 5 4 3 3 4 6 6 4 3
5 9 10 9 7 7 6 8 8 7 5 7 9 9 10 10 9 8 8 8 6 6 6 6 5 5 4 3 4 6 7 6 4 4 5 6 5 6 4 4 4 3 2 2 2 2 3 3 2 2 3 4 2 1 2 1 0 2 3 2 2 1 1 1 1 1 1 1 1 2 2 2 2 2 3 3 4 4 3 4 5 4 5 9 9
6 5 10 10 9 7 7 6 5 5 7 8 9 9 10 10 9 9 8 7 7 6 7 7 6 6 4 3 5 5 5 6 6 6 6 4 5 5 4 3 5 6 5 5 5 3 1 1 2 3 2 2 4 3 1 3 3 2 2 1 3 3 4 1 1 1 1 1 1 1 1 3 3 2 2 2 3 3 2 2 2 4 3 3 5
9 5 8 10 10 9 7 7 6 5 7 7 9 9 8 8 9 10 9 9 9 5 4 6 6 6 6 6 5 4 5 5 5 5 4 4 5 5 5 4 3 6 5 6 5 4 3 4 4 3 2 3 2 3 5 3 2 2 1 1 2 1 2 2 1 1 1 1 2 2 2 2 2 1 2 2 1 1 1 1 2 2 3 3 2
10 8 8 8 11 11 9 7 5 6 7 7 8 9 9 8 9 9 9 8 7 8 8 6 6 6 7 6 5 5 4 5 6 5 4 5 5 6 5 5 6 5 6 5 5 5 5 4 4 3 3 3 3 4 3 2 4 2 2 2 2 2 2 2 2 1 2 2 1 2 1 2 3 2 1 1 1 1 2 2 1 2 1 2 3
11 11 9 8 9 10 10 7 7 7 7 8 9 8 9 9 10 9 8 6 8 8 7 7 7 7 6 4 6 5 6 6 6 5 5 5 4 4 4 5 5 4 5 5 4 4 4 4 5 5 5 5 4 3 4 3 3 2 2 1 2 1 2 2 2 2 1 1 1 1 3 2 2 5 3 2 2 2 2 1 1 0 2 1 3
9 9 9 8 9 10 11 10 9 8 8 9 9 9 9 8 9 8 10 9 8 7 7 7 7 6 7 6 6 6 6 5 5 5 4 4 4 4 4 4 4 4 4 4 4 4 4 4 4 4 4 5 4 4 4 3 4 3 2 4 2 1 1 1 0 0 0 0 0 0 2 3 3 2 1 4 3 2 3 3 2 3 3 3 3
6 9 10 9 9 11 11 11 11 8 9 9 9 10 9 8 8 9 12 11 10 9 8 7 6 6 8 7 7 6 5 6 6 4 5 4 4 4 4 4 4 4 4 4 4 3 3 4 4 5 5 5 5 5 6 5 4 5 5 5 5 4 4 3 3 3 3 2 1 2 2 2 3 3 3 3 4 3 3 3 3 4 5 5 5
Wind_Direction
144 136 136 129 128 124 126 127 125 124 123 122 121 122 122 122 121 121 120 119 115 114 113 110 107 105 103 101 99 99 99 98 96 96 94 93 96 98 100 101 101 101 101 98 93 90 90 89 89 86 85 85 86 83 84 86 86 89 93 92 91 94 98 97 95 94 93 95 96 91 79 76 75 73 74 69 72 77 77 74 66 55 55 67 69
145 139 133 131 128 126 128 127 125 123 120 118 121 122 122 122 123 122 120 118 116 116 115 112 109 108 106 103 102 101 104 102 99 97 97 95 96 100 103 103 105 106 105 102 97 93 90 90 89 87 87 88 88 88 89 89 91 94 96 96 95 97 97 97 101 104 103 100 95 87 81 79 78 72 73 74 71 71 71 73 72 56 61 72 72
131 134 136 131 129 126 127 123 123 120 121 120 121 121 123 123 124 123 121 118 118 118 117 115 112 110 109 106 105 104 107 107 101 99 99 101 100 102 104 106 104 102 99 100 99 96 92 90 89 88 92 95 93 93 96 94 92 95 95 98 103 103 105 107 109 109 108 102 95 91 87 84 82 77 76 76 73 73 73 76 73 71 69 72 69
130 135 137 133 126 124 125 127 124 121 119 117 120 123 125 125 125 124 121 120 120 120 120 116 113 112 110 108 106 105 106 111 106 103 99 100 105 107 108 106 105 101 100 102 100 96 96 96 93 87 84 94 99 94 93 95 97 101 99 98 102 103 105 110 113 116 113 106 97 91 87 87 85 83 79 76 76 78 78 75 75 73 72 73 73
127 137 135 129 124 125 126 126 124 120 121 120 121 125 125 127 126 123 122 122 122 124 122 117 116 115 113 111 110 108 104 104 110 105 100 99 100 100 99 101 101 101 103 102 101 100 99 99 95 89 84 89 93 95 99 99 103 100 100 103 102 105 108 110 114 126 126 111 102 95 94 89 83 81 81 81 77 77 78 79 82 80 70 73 74
134 140 135 128 123 125 126 123 123 122 121 122 123 124 126 127 126 125 122 122 124 124 124 119 119 118 115 112 112 111 107 100 98 98 94 95 95 100 103 102 100 104 106 108 104 101 101 98 96 90 88 84 85 97 102 103 102 100 99 103 101 106 109 115 127 132 146 131 86 84 92 91 90 89 84 77 77 82 78 79 75 79 79 74 73
134 138 133 124 121 125 125 122 121 123 124 124 125 127 127 128 126 125 123 122 125 126 126 124 122 122 118 113 112 113 110 107 101 98 92 88 92 98 102 102 106 115 112 107 99 97 97 99 95 92 91 89 88 88 97 95 97 94 95 98 100 98 104 113 118 146 156 201 61 98 109 105 103 92 84 81 82 83 83 75 79 85 82 76 79
129 135 129 123 124 128 125 123 123 124 125 125 127 127 127 127 125 125 124 125 126 127 127 127 126 125 123 117 114 114 114 110 107 104 101 93 91 93 102 104 107 113 113 106 104 106 105 99 97 97 94 93 90 91 90 90 85 86 91 62 69 87 52 74 76 133 180 158 117 108 96 100 92 91 84 79 77 80 85 74 77 81 79 80 75
135 134 127 125 129 132 128 126 127 127 127 126 126 127 126 126 126 126 126 126 127 127 128 127 126 125 124 120 117 115 114 112 110 108 107 104 101 91 91 105 108 138 92 78 70 104 105 106 103 99 98 99 96 89 88 95 88 47 79 345 1 27 34 359 10 64 275 198 145 119 116 111 106 99 98 92 86 83 84 71 56 71 80 82 79
135 130 125 125 128 130 127 126 126 126 124 124 126 127 127 126 127 126 125 125 125 126 126 125 125 124 124 123 118 116 113 113 113 114 115 111 107 110 110 110 133 100 91 82 92 114 109 98 101 102 102 103 104 105 103 101 102 319 299 320 337 345 5 5 353 342 276 287 127 121 122 116 105 108 103 95 93 91 92 94 91 86 80 82 84
130 126 124 123 127 126 124 123 124 123 122 122 125 128 128 127 126 125 123 123 123 124 123 123 123 122 122 120 119 116 114 112 113 112 112 116 120 124 126 106 100 95 87 93 96 99 100 104 104 104 105 109 110 110 112 116 138 266 280 308 313 331 359 357 1 352 17 96 112 120 125 118 107 105 111 101 96 93 91 84 81 84 93 87 86
125 120 121 121 124 120 121 121 121 122 123 124 125 126 127 127 125 123 122 123 123 123 121 121 121 122 122 121 118 117 115 113 112 110 110 111 111 105 98 100 104 99 96 101 106 107 107 109 111 113 117 118 117 119 128 144 171 226 278 290 309 344 355 350 357 34 27 120 120 127 124 118 118 116 115 115 105 96 95 96 100 97 89 95 94
120 118 119 117 117 120 118 117 120 122 122 123 125 126 124 124 123 123 123 122 122 122 122 120 120 121 123 123 121 118 117 115 114 114 112 112 111 109 109 111 111 109 107 112 114 117 116 115 118 120 126 125 129 136 148 167 185 209 258 285 311 345 348 340 349 41 83 122 122 121 115 110 111 119 110 106 111 103 102 106 101 97 98 94 85
117 118 117 116 117 118 114 113 116 118 119 119 121 122 123 123 124 122 121 121 120 119 118 116 116 115 116 119 118 117 117 119 120 120 120 118 117 118 119 117 117 114 115 119 120 121 121 121 124 127 130 134 138 139 143 169 206 243 279 294 306 331 339 337 330 66 124 126 119 117 113 115 114 112 113 110 112 116 106 102 96 100 99 93 96
119 120 119 114 113 113 115 112 113 113 112 115 117 116 115 115 116 118 119 120 120 118 116 111 111 114 117 117 113 115 118 122 123 125 125 124 124 123 124 121 117 116 122 120 122 128 125 128 128 131 133 140 134 126 128 210 289 294 300 306 313 317 335 311 345 353 129 136 127 121 119 116 119 115 112 114 109 98 107 103 104 99 89 89 87
122 122 117 114 114 112 111 114 111 111 113 113 111 111 112 115 116 116 118 119 119 116 113 114 115 118 116 115 118 119 122 125 125 124 124 125 125 126 124 123 120 117 126 129 128 133 132 133 133 137 143 144 139 135 137 235 308 299 307 315 308 318 327 329 14 26 114 124 117 114 117 117 121 119 118 114 117 121 108 112 110 116 116 114 112
123 121 118 116 114 113 111 113 116 114 113 113 113 112 114 114 113 113 116 117 118 115 114 116 121 122 120 119 120 123 124 128 131 132 131 130 127 127 129 127 125 123 132 136 135 139 142 139 140 144 152 151 146 145 144 226 285 294 304 311 309 326 322 339 49 57 123 122 116 118 120 124 124 122 118 118 117 119 124 118 109 105 113 114 115
127 126 122 122 118 116 115 116 114 112 115 117 115 115 115 115 116 117 117 116 114 110 108 114 121 116 118 121 122 124 126 127 128 132 133 130 127 126 130 136 137 137 140 141 143 146 148 148 146 154 158 165 162 166 173 209 266 285 296 300 312 323 326 332 62 84 129 123 116 120 117 123 122 122 122 125 134 132 130 114 118 106 99 108 107
129 126 124 126 123 119 119 119 120 119 118 114 115 119 118 117 118 119 117 112 104 103 113 132 128 109 116 120 116 117 115 117 126 123 120 126 135 135 132 138 145 145 146 150 151 153 154 153 157 161 170 175 180 194 192 251 272 277 284 292 309 327 319 325 79 124 122 120 123 124 129 129 132 132 129 129 132 132 118 118 110 124 111 93 99
131 128 130 130 126 124 128 130 133 133 125 119 117 120 124 122 122 121 118 110 103 105 140 168 137 120 102 104 117 120 126 130 126 125 126 132 136 139 143 146 150 151 152 158 160 158 160 165 167 170 180 182 194 198 222 253 279 285 285 291 311 332 310 14 71 123 132 136 135 137 143 141 139 136 132 132 146 133 132 125 132 121 125 121 110
131 133 139 136 130 134 141 140 141 133 128 125 125 122 125 120 118 120 118 114 119 137 162 181 134 117 114 122 111 110 111 122 127 133 142 137 140 148 154 154 156 154 159 161 160 162 164 166 170 181 193 199 196 215 241 253 273 286 296 297 316 329 300 39 155 134 134 142 137 141 145 144 141 137 135 136 136 139 137 141 135 130 125 126 126
136 138 143 140 133 143 147 136 137 132 131 130 130 124 120 116 112 115 120 121 130 145 164 174 129 123 150 137 91 64 61 129 172 156 141 146 148 156 154 157 156 159 160 160 156 158 163 166 172 193 209 220 222 233 275 288 279 279 291 299 315 297 308 50 106 127 127 132 141 146 146 145 142 139 138 136 145 148 147 145 136 131 132 132 128
137 138 143 139 133 135 129 134 132 126 128 135 134 133 126 126 124 125 126 128 142 149 160 163 96 113 121 102 103 78 80 38 161 150 140 153 147 154 155 157 158 156 155 146 157 156 163 160 177 191 200 222 255 283 288 279 279 274 280 300 303 298 308 80 126 129 135 143 142 149 148 145 143 142 139 139 144 152 155 145 146 141 136 133 133
141 146 142 127 130 139 146 139 132 129 137 139 134 139 138 136 140 135 126 140 149 137 162 163 122 121 121 100 99 127 114 33 123 202 185 137 141 145 155 159 158 154 156 160 161 166 170 173 188 196 207 225 237 267 272 282 274 262 258 265 288 295 295 90 128 118 131 144 147 152 151 147 145 145 143 144 148 163 160 155 152 149 150 142 139
144 139 132 130 137 148 146 138 138 142 141 137 137 138 129 132 135 134 131 145 139 132 164 152 138 111 125 130 157 161 156 188 154 186 180 155 135 116 116 115 134 145 152 133 129 165 154 164 186 198 211 230 238 245 257 265 260 223 218 230 258 280 288 112 124 121 136 141 151 157 154 149 148 149 148 148 152 159 159 159 159 158 156 155 151
136 137 136 133 144 152 146 146 144 139 137 137 139 139 129 129 127 133 129 142 132 141 123 124 56 103 130 139 162 185 175 167 164 186 171 142 128 120 135 149 152 139 136 141 174 164 171 171 182 209 231 223 225 237 237 242 261 228 210 215 233 261 264 124 123 118 120 133 160 159 154 151 153 153 154 153 155 156 161 167 157 160 156 160 158
147 143 138 141 145 148 147 143 138 138 141 139 135 134 129 130 136 132 135 143 145 155 140 125 132 89 135 160 156 162 127 117 149 203 152 123 119 118 109 101 111 86 148 154 151 185 179 195 193 209 220 232 244 246 235 240 237 218 198 242 232 234 241 118 129 120 131 150 164 161 157 160 161 160 159 157 159 159 165 166 162 162 164 172 157
138 147 141 140 143 146 144 147 143 141 150 139 136 134 127 129 143 140 129 159 146 161 165 156 148 173 186 154 133 143 140 133 202 177 147 92 92 109 128 114 106 113 104 110 114 53 27 58 278 255 222 232 243 246 244 231 196 193 181 201 196 233 211 114 132 128 143 153 163 165 164 165 166 166 164 163 165 166 165 168 165 166 173 173 169
141 150 147 139 141 144 146 144 144 144 139 126 117 119 120 117 107 118 140 156 154 160 155 145 142 166 190 146 142 179 143 157 191 165 117 106 111 106 121 114 104 106 109 101 90 122 175 167 177 248 347 303 283 291 298 276 208 188 175 190 126 203 229 119 134 148 150 157 165 172 169 167 170 172 169 168 172 167 170 170 171 171 176 178 181
150 148 147 140 140 141 144 146 145 139 135 125 128 127 132 126 130 141 152 145 144 134 138 143 159 159 170 154 155 164 156 155 131 121 120 134 133 133 115 112 112 124 127 136 95 143 154 77 31 304 251 245 226 294 344 331 301 230 223 236 269 167 190 151 149 154 149 164 168 174 174 171 176 174 172 177 178 172 174 176 172 172 176 180 182
138 145 147 147 147 143 145 146 144 142 143 136 141 144 147 146 150 151 141 132 145 154 130 125 150 156 166 170 132 153 112 55 86 122 113 125 121 130 128 123 190 194 141 136 141 139 54 115 169 220 231 267 279 342 16 327 320 314 238 204 230 260 172 165 148 147 153 167 170 172 181 177 181 180 176 184 185 178 180 180 175 174 174 179 181
139 149 127 148 147 146 145 148 142 140 140 143 143 150 154 141 140 134 135 137 142 143 142 139 156 171 160 145 136 147 124 111 75 24 25 86 96 117 141 150 192 201 143 136 113 99 92 64 211 257 262 235 330 321 286 315 311 357 313 242 243 233 227 167 151 159 160 161 177 176 177 185 185 182 188 186 182 187 185 181 182 177 176 177 180
122 106 99 112 124 132 142 144 140 145 136 152 160 151 129 130 135 138 128 125 117 113 110 129 152 139 103 114 138 144 68 95 69 38 353 11 223 228 175 175 163 117 112 116 87 85 99 197 193 210 248 321 302 293 292 38 319 37 1 4 335 261 268 187 171 161 162 165 173 175 178 182 182 188 186 186 180 188 190 183 187 180 177 179 179
116 104 99 100 111 120 123 118 122 126 125 129 120 134 129 126 133 136 130 125 141 132 128 120 112 130 133 96 79 61 67 60 109 92 129 219 207 184 158 136 147 130 116 94 96 74 351 326 143 242 276 311 273 253 254 299 320 23 25 4 17 338 350 13 296 171 165 167 174 176 178 174 175 180 188 187 182 186 189 185 189 182 180 185 183
106 99 104 112 107 112 110 100 101 102 101 99 106 126 126 130 147 138 146 149 154 151 137 136 116 133 133 115 88 94 113 114 84 82 354 247 331 21 18 92 88 78 104 131 128 111 155 221 209 184 260 5 316 281 229 194 318 358 28 15 14 355 4 14 35 24 142 175 167 171 173 172 171 175 184 189 189 189 191 189 192 186 186 186 194
111 114 112 108 106 103 102 101 97 97 96 100 99 113 133 147 152 151 152 152 151 153 155 158 155 143 135 136 116 110 117 138 129 154 173 291 293 215 208 187 149 116 138 151 130 152 174 202 355 21 40 337 24 9 3 358 359 354 28 47 27 21 24 28 21 9 55 137 172 182 168 173 177 182 183 183 188 194 193 193 196 189 189 192 199
118 117 119 113 110 109 103 107 108 106 105 103 105 107 122 141 153 157 164 157 147 156 154 139 140 135 141 125 138 157 177 175 142 154 153 181 195 173 202 230 140 107 74 99 136 158 158 128 74 313 32 80 66 28 4 4 345 17 16 46 36 19 47 36 11 7 25 44 133 187 197 190 185 185 186 180 186 192 197 194 200 191 193 201 203
119 118 118 118 120 117 117 116 117 118 120 115 114 118 119 113 100 116 127 130 140 148 127 125 132 151 136 129 141 158 178 195 193 162 152 178 212 220 201 168 140 94 85 99 93 101 83 85 62 2 37 78 68 53 357 312 290 37 38 43 1 34 55 47 35 11 19 32 11 107 171 183 222 218 189 185 186 191 196 198 198 194 194 203 211
121 117 114 114 115 119 121 122 124 128 123 116 112 101 110 108 105 94 78 89 105 127 125 112 117 103 113 118 107 107 148 182 180 163 163 175 193 234 243 192 118 100 95 96 279 259 113 97 115 17 328 92 129 137 181 241 292 34 52 23 10 358 15 33 74 53 5 7 10 1 105 177 170 207 232 202 190 189 192 193 193 195 198 201 209
118 117 118 119 122 126 125 124 128 128 125 119 120 121 119 131 100 65 75 76 73 81 81 95 85 73 64 62 72 82 83 103 157 172 171 169 189 190 245 291 117 129 122 118 203 280 124 139 131 150 164 266 162 168 155 148 354 25 10 335 27 14 339 347 351 58 8 344 352 349 27 145 192 199 190 211 209 191 189 189 193 194 195 206 207
124 124 125 128 140 143 136 139 146 139 137 139 141 140 141 118 102 115 119 99 94 87 80 75 74 74 74 76 83 86 84 76 63 98 133 168 156 142 148 233 241 135 147 162 179 324 41 113 124 115 179 211 332 66 92 129 106 6 355 328 289 244 202 261 332 350 355 336 345 349 328 54 88 158 222 205 199 195 190 184 190 193 200 198 208
139 131 134 138 152 149 145 150 147 154 159 161 161 153 158 158 149 151 131 120 104 92 81 70 75 78 79 80 84 101 114 110 89 59 42 89 141 148 156 178 189 183 174 159 136 152 153 170 104 91 38 140 225 206 193 115 27 176 152 291 312 273 241 162 36 322 327 333 348 336 322 25 90 130 127 133 180 189 192 188 194 196 200 203 198
146 141 140 139 158 163 160 156 163 167 174 170 151 159 158 153 122 124 116 92 90 117 111 111 98 86 73 73 61 48 90 110 108 79 77 67 80 117 149 158 168 164 143 147 169 162 166 170 166 156 180 209 207 182 207 237 145 286 126 83 321 7 327 353 354 318 276 309 324 324 343 334 44 67 106 99 105 166 180 177 184 205 228 220 199
154 138 142 148 161 175 173 166 176 175 174 156 130 116 104 103 107 113 107 114 125 116 114 104 89 90 90 73 41 68 70 69 80 92 86 71 76 87 96 106 145 163 160 162 158 146 124 89 135 140 118 125 108 175 149 203 188 155 102 179 199 120 13 311 312 314 234 220 262 291 309 316 10 0 56 95 110 107 102 132 177 199 204 230 243
164 149 149 154 166 177 181 179 179 175 165 138 124 122 110 99 103 99 100 97 86 96 97 104 112 116 109 72 68 66 74 74 74 76 72 69 67 71 84 108 114 109 112 111 137 172 171 149 133 142 173 158 154 175 40 175 127 44 144 100 49 30 235 227 111 297 13 39 357 341 321 336 14 19 41 75 87 87 115 123 129 146 179 191 209
190 177 152 156 159 170 176 187 185 165 148 145 135 126 125 129 125 121 120 121 125 123 133 138 125 128 133 127 78 79 81 76 73 71 74 79 68 60 46 71 91 87 95 84 71 70 50 93 171 142 104 84 138 116 112 28 103 106 70 128 161 175 172 244 99 223 348 28 342 3 23 349 353 4 41 65 65 66 78 104 133 143 140 149 161
194 185 158 158 157 162 173 184 184 161 153 149 139 131 130 134 134 135 139 144 145 159 142 137 134 132 117 101 111 92 93 93 83 81 70 63 65 60 56 39 54 86 80 73 77 86 69 56 50 81 120 129 130 132 156 154 96 76 166 167 146 126 128 117 190 104 95 308 7 335 334 338 332 7 31 54 60 48 19 24 150 125 92 94 128
187 179 168 163 158 165 167 180 184 163 160 154 142 142 140 140 136 137 142 147 147 142 139 140 129 128 120 130 121 120 107 105 101 93 87 79 76 66 56 63 75 74 76 80 82 73 64 49 60 79 86 65 80 130 142 162 142 164 158 93 43 71 98 87 83 151 163 131 311 325 309 297 319 274 204 124 120 110 12 349 48 100 107 154 152
177 176 170 168 159 163 165 168 181 163 167 159 150 152 148 149 147 148 142 144 138 137 135 130 131 133 130 118 100 96 98 97 105 104 93 83 76 82 69 69 79 87 87 79 72 78 84 71 57 56 65 56 65 71 90 77 79 129 119 64 68 82 61 36 62 25 107 93 304 312 306 328 327 278 266 248 177 173 185 219 285 291 260 229 173
176 169 166 163 162 165 169 169 179 170 171 165 157 159 156 151 151 149 139 140 132 129 125 132 139 136 128 130 114 111 108 102 102 102 94 85 85 73 68 68 74 86 94 97 88 76 73 72 75 78 73 72 49 66 81 102 96 84 93 139 134 97 72 77 313 160 357 93 150 232 266 276 296 289 270 253 259 245 212 201 234 264 260 247 233
168 171 171 172 166 171 175 175 179 173 169 168 162 166 166 159 156 147 144 142 138 134 131 136 139 124 130 132 129 128 113 114 108 103 105 98 90 92 81 63 69 87 103 112 116 110 83 86 74 61 56 68 65 59 58 45 61 60 51 69 92 103 120 101 73 47 84 89 30 346 326 326 241 282 287 248 245 243 253 265 248 232 228 239 245